Regional Weather Roundup
Issued by NWS

Home | Current Version | Previous Version | Text Only | Print | Product List | Glossary Off
Versions: 1 2 3 4 5 6 7 8 9 10 11 12 13 14 15 16 17 18 19 20 21 22 23 24 25 26 27 28 29 30 31 32 33 34 35 36 37 38 39 40 41 42 43 44 45 46 47 48 49 50

568
ASUS45 KABQ 080510
RWRNM
NEW MEXICO REGIONAL WEATHER ROUNDUP
NATIONAL WEATHER SERVICE ALBUQUERQUE NM
1000 PM MST SUN FEB 07 2016

NOTE: "FAIR" MEANS FEW OR NO CLOUDS BELOW 12,000 FEET AGL WITH NO
       SIGNIFICANT WEATHER OR OBSTRUCTIONS TO VISION.

      THIS PRODUCT IS RELEASED AS TWO VERSIONS.  ONE VERSION NEAR
      THE TOP OF THE HOUR CONTAINING PRELIMINARY DATA FROM ALBUQUERQUE
      AND OTHER STATIONS.  A FINAL VERSION WITH ADDITIONAL DATA IS
      ISSUED ABOUT 10 MINUTES AFTER THE HOUR.

NMZ501-503-504-510>518-080600-
NORTHWEST PLATEAU/NORTHCENTRAL MOUNTAINS

CITY           SKY/WX    TMP DP  RH WIND       PRES   REMARKS
FARMINGTON     CLOUDY    26  20  77 CALM      30.40R
LOS ALAMOS     CLOUDY    41  13  32 N5        30.39R
SANTA FE       CLOUDY    34  19  54 SE5       30.38R WCI  30
TAOS           CLOUDY    19  12  73 E7        30.41R WCI  10
ANGEL FIRE     FAIR      13   6  74 CALM      30.40S

$$
NMZ402-403-502-505>509-080600-
WESTCENTRAL MOUNTAINS/SOUTHWEST MOUNTAINS

CITY           SKY/WX    TMP DP  RH WIND       PRES   REMARKS
GALLUP         CLEAR     24  18  77 CALM      30.45R
GRANTS         CLEAR     24  14  65 NW17      30.47R WCI  10
SILVER CITY      N/A     36  18  48 N10       30.36R WCI  28

$$
NMZ407-409-411-412-080600-
SOUTHERN DESERTS

CITY           SKY/WX    TMP DP  RH WIND       PRES   REMARKS
LORDSBURG      FAIR      39  18  41 SE5       30.32R
DEMING         MOCLDY    39  14  36 S5        30.32R
LAS CRUCES     MOCLDY    42  14  32 W5        30.32R
HOLLOMAN AFB   CLOUDY    41  12  30 NE6       30.28R
ALAMOGORDO     CLOUDY    43  18  36 SE10      30.29R
T OR C         PTCLDY    46  14  27 NW8       30.32R

$$
NMZ519>523-080600-
CENTRAL VALLEYS/CENTRAL HIGHLANDS

CITY           SKY/WX    TMP DP  RH WIND       PRES   REMARKS
ALBUQUERQUE    CLOUDY    43  19  38 N7        30.39R
DOUBLE EAGLE   CLEAR     37  19  48 NW16      30.39R WCI  28
MORIARTY ARPT  FAIR      35  19  52 CALM      30.37S
CLINES CORNERS CLOUDY    32  20  61 W13       30.33S WCI  22
BELEN          FAIR      34  16  47 N9        30.39R WCI  27
SOCORRO        FAIR      45  17  32 N9G18     30.36R

$$
NMZ524>526-539-540-080600-
SOUTHCENTRAL MOUNTAINS

CITY           SKY/WX    TMP DP  RH WIND       PRES   REMARKS
RUIDOSO          N/A     41  14  33 CALM      30.39R

$$
NMZ527>531-080600-
NORTHEAST HIGHLANDS/NORTHEAST PLAINS

CITY           SKY/WX    TMP DP  RH WIND       PRES   REMARKS
LAS VEGAS      CLOUDY    29  18  63 W9        30.38R WCI  20
RATON          CLOUDY    25  18  74 N6        30.34R WCI  18
CLAYTON        CLOUDY    21  15  78 N8        30.40R WCI  11

$$
NMZ532>537-080600-
EASTCENTRAL PLAINS

CITY           SKY/WX    TMP DP  RH WIND       PRES   REMARKS
TUCUMCARI      CLEAR     32  17  54 NE9       30.42R WCI  24
CANNON AFB     CLEAR     33  18  53 NE14      30.38R WCI  24
CLOVIS AIRPORT CLEAR     32  16  51 NE15      30.40R WCI  22

$$
NMZ028-029-538-080600-
SOUTHEAST PLAINS

CITY           SKY/WX    TMP DP  RH WIND       PRES   REMARKS
ROSWELL        CLOUDY    41  19  41 N5        30.32R
ARTESIA        CLOUDY    41  21  45 CALM      30.32R
CARLSBAD       CLOUDY    44  21  40 VRB3      30.29R
HOBBS          CLOUDY    45  18  33 NE10      30.34R


$$




USA.gov is the U.S. government's official web portal to all federal, state and local government web resources and services.